Location: El Frío
(10.0713°N, 67.9111°W)
Time: 09:51:29
(UTC+00:00)

Delta 202 - Pass Details

Date: 11 December 2025
Orbit: 781 x 2712 km, 18.5° (Epoch: 15 January)

Event Time Altitude Azimuth Distance (km) Brightness Sun altitude
Rises 22:26:17 0° 267° (W) 3,251 8.4 -4.2°
Reaches altitude 10° 22:28:42 10° 271° (W) 2,321 7.3 -4.7°
Maximum altitude 22:33:51 55° 349° (N) 1,002 4.1 -5.9°
Drops below altitude 10° 22:40:07 10° 67° (ENE) 2,801 5.7 -7.3°
Enters shadow 22:40:33 - 68° (ENE) 2,960 5.8 -7.4°
